Weather History for New York, NY

Change the Weather History Date:

Friday, March 16, 1984

  Actual Average Record
Temperature  
Mean Temperature 42 °F 42 °F  
Max Temperature 50 °F 50 °F 77 °F (1990)
Min Temperature 33 °F 34 °F 19 °F (1979)
Degree Days  
Heating Degree Days 24 23  
Month to date heating degree days 401  
Since 1 July heating degree days 3830  
Cooling Degree Days 0 0  
Month to date cooling degree days 0  
Year to date cooling degree days 0  
Moisture  
Dew Point 34 °F    
Average Humidity 76    
Maximum Humidity 89    
Minimum Humidity 57    
Precipitation  
Precipitation 0.05 in 0.13 in 1.12 in (2007)
Month to date precipitation 1.93  
Year to date precipitation 7.86  
Snow  
Snow 0.00 in 0.10 in 7.30 in (1956)
Month to date snowfall 3.0  
Since 1 July snowfall 25.0  
Snow Depth -    
Sea Level Pressure  
Sea Level Pressure 30.13 in    
Wind  
Wind Speed 8 mph (ENE)    
Max Wind Speed 16 mph    
Max Gust Speed -    
Visibility 11 miles    
Events Rain    
T = Trace of Precipitation, MM = Missing Value Source: NWS Daily Summary

Daily Weather History Graph

Daily Weather History Graph

Search for Another Location

Airport:

Trip Planner

Search our weather history database for the weather conditions in past years. The results will help you decide how hot, cold, wet, or windy it might be!

Date:

Astronomy

Mar. 16, 1984 Rise Set
Actual Time 6:05 AM EST 6:03 PM EST
Civil Twilight 5:37 AM EST 6:30 PM EST
Nautical Twilight 5:06 AM EST 7:02 PM EST
Astronomical Twilight 4:33 AM EST 7:35 PM EST
Moon 5:17 PM EST (3/16) 6:00 AM EST (3/16)
Length of Visible Light 12h 53m
Length of Day
11h 58m
Waxing Gibbous, 99% of the Moon is Illuminated
Mar 16
Waxing Gibbous
Mar 17
Full
Mar 24
Last Quarter
Apr 1
New
Apr 8
First Quarter

Hourly Weather History & Observations

Time (EST) Temp. Windchill Dew Point Humidity Pressure Visibility Wind Dir Wind Speed Gust Speed Precip Events Conditions
12:00 AM 37.9 °F 34.4 °F 28.9 °F 70% 30.21 in 15.0 mi ENE 4.6 mph - N/A   Scattered Clouds
1:00 AM 35.1 °F 31.0 °F 27.0 °F 72% 30.19 in 15.0 mi ENE 4.6 mph - N/A   Partly Cloudy
2:00 AM 36.0 °F 29.0 °F 28.9 °F 76% 30.20 in 15.0 mi WNW 9.2 mph - N/A   Scattered Clouds
3:00 AM 36.0 °F 32.1 °F 30.0 °F 79% 30.18 in 15.0 mi NE 4.6 mph - N/A   Scattered Clouds
4:00 AM 35.1 °F 31.0 °F 27.0 °F 72% 30.19 in 15.0 mi ENE 4.6 mph - N/A   Scattered Clouds
5:00 AM 34.0 °F 29.8 °F 28.9 °F 82% 30.19 in 15.0 mi ESE 4.6 mph - N/A   Scattered Clouds
6:00 AM 33.1 °F 27.7 °F 28.0 °F 82% 30.19 in 15.0 mi ENE 5.8 mph - N/A   Scattered Clouds
7:00 AM 35.1 °F 28.6 °F 28.0 °F 76% 30.18 in 10.0 mi ENE 8.1 mph - N/A   Unknown
8:00 AM 35.1 °F 29.3 °F 30.0 °F 82% 30.19 in 9.0 mi ENE 6.9 mph - N/A   Scattered Clouds
9:00 AM 37.0 °F 29.3 °F 30.9 °F 79% 30.17 in 9.0 mi ENE 11.5 mph - N/A   Scattered Clouds
10:00 AM 39.0 °F 31.8 °F 34.0 °F 82% 30.14 in 9.0 mi ENE 11.5 mph - N/A   Scattered Clouds
11:00 AM 42.1 °F 35.7 °F 35.1 °F 76% 30.12 in 8.0 mi ENE 11.5 mph - N/A   Scattered Clouds
12:00 PM 45.0 °F 38.9 °F 36.0 °F 71% 30.10 in 8.0 mi ENE 12.7 mph - N/A   Scattered Clouds
1:00 PM 48.0 °F - 37.9 °F 68% 30.08 in 8.0 mi ENE 9.2 mph - N/A   Mostly Cloudy
2:00 PM 50.0 °F - 36.0 °F 59% 30.06 in 8.0 mi SE 16.1 mph - N/A   Mostly Cloudy
3:00 PM 50.0 °F - 35.1 °F 57% 30.06 in 8.0 mi South 13.8 mph - N/A   Mostly Cloudy
4:00 PM 48.9 °F - 37.0 °F 64% 30.06 in 8.0 mi South 12.7 mph - N/A   Overcast
5:00 PM 48.0 °F - 37.0 °F 66% 30.06 in 8.0 mi South 8.1 mph - N/A Rain Light Rain Showers
6:00 PM 45.0 °F 39.7 °F 37.9 °F 76% 30.06 in 8.0 mi SW 10.4 mph - 0.04 in Rain Light Rain Showers
7:00 PM 43.0 °F 39.5 °F 39.0 °F 86% 30.07 in 8.0 mi SW 5.8 mph - 0.01 in Rain Light Rain Showers
8:00 PM 44.1 °F 39.0 °F 39.9 °F 85% 30.07 in 10.0 mi East 9.2 mph - N/A   Overcast
9:00 PM 45.0 °F 43.5 °F 41.0 °F 86% 30.08 in 10.0 mi North 3.5 mph - N/A   Overcast
10:00 PM 44.1 °F 40.1 °F 39.9 °F 85% 30.09 in 10.0 mi North 6.9 mph - N/A   Overcast
10:22 PM - - - N/A% 30.10 in 10.0 mi NNW 12.7 mph - N/A   Overcast
11:00 PM 43.0 °F 36.0 °F 39.9 °F 89% 30.09 in 10.0 mi NNW 13.8 mph - N/A   Overcast